Temperature
13 13 13 12 12 12 12 12 12 11 11 11 11 11 11 11 11 11 11 11 12 12 12 12 13 13 13 14 14 15 15 15 15 16 16 16 16 16 16 16 16 16 16
13 12 12 12 11 11 11 11 11 11 11 11 11 11 11 11 11 11 11 11 11 11 11 12 12 12 12 13 13 14 14 14 15 15 15 15 15 15 15 15 15 15 15
12 11 11 11 10 10 10 10 10 10 10 10 10 10 10 11 11 11 11 11 11 11 11 11 11 11 12 12 12 13 13 13 14 14 15 15 14 14 14 14 14 14 14
11 10 10 10 10 9 9 9 9 9 9 9 10 10 10 10 10 10 10 11 11 11 11 11 11 11 11 11 11 12 12 13 13 13 14 14 14 14 14 14 13 13 13
10 10 10 9 9 9 9 9 9 9 9 9 9 9 9 9 10 10 10 10 10 10 10 10 10 11 10 11 11 11 11 12 12 13 13 13 13 13 13 13 13 13 13
9 9 9 9 9 8 8 8 8 8 8 8 8 8 8 9 9 9 10 10 10 10 10 10 10 10 10 10 10 11 11 11 11 12 12 13 13 13 13 13 13 12 12
9 9 9 8 8 8 8 8 8 8 8 8 8 8 8 8 8 9 9 9 9 10 10 10 10 10 10 10 10 10 10 10 11 11 11 12 12 13 13 13 13 13 13
9 8 8 8 8 7 7 7 7 7 7 7 7 7 7 7 8 8 8 8 9 9 9 10 10 10 10 10 10 10 10 10 11 11 11 12 12 12 12 12 13 12 12
8 8 8 7 7 7 7 7 7 7 7 7 7 7 7 7 7 7 8 8 8 9 9 9 9 9 10 10 10 9 10 10 10 10 11 11 11 11 12 12 12 12 12
8 7 7 7 7 7 7 7 7 7 7 7 7 7 7 7 7 7 7 7 8 8 8 9 9 9 9 9 9 9 9 9 9 10 10 10 11 11 11 11 12 12 12
7 7 7 7 7 7 7 7 7 7 7 6 6 7 7 7 7 7 7 7 7 8 8 8 9 9 9 9 9 9 9 9 9 9 10 10 10 10 11 11 12 12 12
7 7 7 7 7 7 7 7 7 7 6 6 6 6 7 7 7 7 7 7 7 7 8 8 9 9 9 9 9 9 9 9 9 9 9 10 10 10 11 11 11 12 12
7 7 7 7 7 7 7 7 7 7 6 6 6 6 6 7 7 7 7 7 7 7 7 8 8 8 9 9 9 9 9 9 9 9 9 10 10 10 11 11 11 11 11
7 7 7 7 7 7 7 7 7 7 6 6 6 6 6 6 6 6 6 6 7 7 7 7 8 8 8 8 9 9 9 8 8 9 9 10 10 10 10 11 11 11 11
7 7 7 7 7 7 7 7 7 7 6 6 6 6 6 6 6 6 6 6 7 7 7 7 7 8 8 8 8 8 8 8 8 9 9 9 10 10 10 10 10 11 10
6 7 7 7 7 7 7 7 7 7 7 6 6 6 6 6 6 6 6 6 6 6 7 7 7 7 8 8 8 8 8 8 8 9 9 9 9 10 10 10 10 10 10
7 7 7 7 7 7 7 7 7 7 7 7 6 6 6 6 6 6 6 6 6 6 7 7 7 7 8 8 8 9 9 9 9 9 9 9 9 9 10 10 10 10 10
7 7 7 7 7 7 7 7 7 7 7 7 7 6 6 6 6 6 6 6 6 6 6 7 7 8 8 8 8 9 9 9 9 9 9 9 9 9 9 9 9 10 9
7 7 7 7 7 7 8 8 8 7 7 7 6 6 6 6 6 6 6 6 6 6 7 7 7 8 8 8 8 9 9 9 9 9 9 9 9 9 9 9 9 9 9
7 7 7 7 8 8 8 8 8 7 7 7 7 6 6 6 6 6 6 6 6 7 7 7 8 8 8 8 8 9 9 9 9 9 9 9 9 9 9 9 9 9 9
7 8 8 8 8 8 8 8 8 8 8 7 7 7 7 6 7 7 7 7 7 7 7 7 8 8 8 8 8 8 8 8 8 8 8 9 9 9 9 9 9 9 9
7 8 8 8 8 8 8 8 8 8 8 7 7 7 7 7 7 7 7 7 7 7 8 8 8 8 8 8 8 8 8 8 8 8 8 8 8 8 8 8 9 9 9
7 8 8 8 8 8 8 8 8 8 8 8 8 8 7 7 7 8 8 8 8 8 8 8 8 8 8 8 8 8 8 8 8 8 8 8 8 8 8 8 8 8 9
7 8 8 8 8 8 8 8 8 8 8 8 8 8 8 8 8 8 8 8 8 8 8 8 8 8 8 8 8 8 8 8 8 8 8 8 8 8 8 8 8 8 9
8 8 8 8 8 9 9 9 9 9 9 9 8 8 8 8 8 8 8 8 8 8 8 8 8 7 7 7 7 8 8 8 8 8 8 8 8 8 8 8 8 9 9
8 8 8 8 9 9 9 9 9 9 9 9 9 9 9 9 9 9 8 8 8 8 8 8 7 7 7 7 7 7 8 8 8 8 8 8 8 8 8 8 8 9 9
Wind_Speed
9 9 9 9 9 9 9 9 9 9 9 9 9 9 9 8 8 7 7 6 6 5 4 5 5 4 3 2 2 2 3 3 4 3 2 5 6 7 7 9 10 9 9
9 9 9 9 9 10 11 10 10 10 9 9 9 10 10 10 9 9 10 9 8 8 7 6 6 5 5 4 3 4 3 3 3 4 3 4 5 7 8 7 6 9 9
10 10 10 10 10 10 11 10 10 10 10 10 10 9 10 10 10 10 10 9 9 9 8 8 7 7 6 5 5 4 4 4 3 4 4 3 4 6 7 6 8 7 8
11 11 11 10 10 11 11 11 11 11 10 10 10 10 10 10 11 10 10 10 10 10 9 8 8 8 8 7 6 6 5 5 4 4 4 4 4 6 7 7 7 6 6
11 12 11 11 11 11 12 12 11 11 13 11 11 11 10 10 12 12 10 12 11 11 10 9 10 10 10 8 7 6 6 5 5 5 4 4 5 6 7 6 8 7 6
12 13 12 12 12 12 12 12 11 11 11 11 11 11 12 13 13 10 9 9 9 11 10 10 10 10 11 12 10 8 7 7 7 6 5 6 7 6 6 7 7 7 5
13 14 12 12 13 13 15 13 13 12 12 12 11 11 11 12 13 12 11 8 9 9 10 10 11 12 12 10 11 11 9 9 8 5 6 6 5 6 7 8 8 9 5
14 13 13 13 14 13 13 13 12 11 11 11 12 12 11 12 13 13 11 9 9 9 9 9 10 8 10 9 9 10 10 9 10 8 6 6 6 4 5 6 7 6 5
15 14 14 15 15 15 15 14 12 12 11 11 11 12 11 11 12 11 11 8 8 10 10 9 10 10 10 11 9 9 9 8 11 12 11 8 8 7 6 5 6 8 6
16 16 15 15 15 16 15 14 12 11 11 11 11 11 11 10 11 12 12 8 9 9 9 9 12 11 12 13 9 8 8 8 7 8 9 9 8 9 11 9 8 9 7
16 16 15 15 15 15 13 11 12 11 10 10 11 10 10 10 10 13 14 10 9 9 8 9 8 13 15 15 12 8 8 6 6 6 7 8 8 8 9 9 9 9 8
16 16 16 15 15 14 12 12 11 10 10 10 9 9 8 8 9 11 14 14 10 7 7 6 6 12 16 16 12 9 9 7 5 5 6 8 8 8 8 9 10 8 6
16 16 16 16 13 12 12 11 10 8 7 7 7 7 6 5 5 9 12 13 12 7 4 3 5 10 13 11 12 12 9 6 6 6 7 7 8 8 7 7 8 7 6
16 16 15 14 13 12 9 8 8 7 7 6 6 5 4 3 3 4 6 7 9 8 6 4 6 9 9 9 9 8 8 7 8 7 7 6 6 7 8 7 8 8 6
15 15 14 13 12 11 9 7 7 5 4 6 6 5 4 3 2 1 3 5 6 7 6 5 5 6 7 7 7 8 9 9 9 7 7 6 6 7 7 8 8 8 7
14 14 12 11 10 10 9 8 5 5 4 4 4 4 3 1 0 1 2 3 4 4 4 5 7 7 8 9 9 9 9 10 9 9 8 7 7 7 7 7 8 9 9
14 13 11 10 10 9 8 8 7 4 3 3 3 3 2 1 0 1 2 3 3 4 4 6 6 6 7 8 8 8 9 9 9 9 8 8 7 8 8 9 9 9 9
14 13 11 9 10 9 8 8 6 5 3 1 2 2 2 1 1 1 2 3 4 4 6 6 6 6 7 7 7 7 7 7 8 8 7 8 8 8 8 9 10 10 10
13 11 11 10 9 8 8 7 6 6 4 1 1 2 2 3 2 2 3 4 5 6 7 6 6 6 6 6 6 6 6 6 7 7 7 8 8 9 9 9 9 13 11
11 14 13 10 9 8 7 7 6 5 4 2 1 1 2 4 3 4 5 6 5 5 5 5 5 6 6 6 5 5 5 6 7 7 7 8 8 9 10 10 10 11 10
11 12 13 10 8 7 7 7 6 5 4 3 2 2 2 3 3 3 4 4 4 4 4 5 5 5 5 4 4 6 6 6 6 7 7 8 8 9 9 9 10 10 11
11 10 9 9 8 7 7 7 5 4 4 4 2 1 1 4 3 3 3 3 3 4 4 4 4 3 3 3 4 4 5 5 6 6 7 8 8 9 9 10 10 11 12
10 10 9 8 7 7 6 5 5 5 4 3 2 2 2 3 3 2 2 2 2 2 2 2 2 2 2 2 1 2 3 4 5 6 7 8 9 9 10 11 12 13 13
10 9 9 8 7 7 6 5 5 4 4 3 2 2 2 2 3 2 2 2 1 0 1 1 1 2 2 2 1 1 1 2 4 5 9 10 10 11 11 11 12 13 13
9 8 8 8 8 7 6 6 6 6 5 3 3 3 2 3 3 2 1 1 0 1 2 2 1 2 3 4 3 3 5 6 4 5 7 8 11 12 12 12 12 12 11
8 8 8 7 7 7 6 6 6 6 5 4 3 2 2 2 2 1 1 1 2 2 3 3 4 4 5 5 7 7 7 7 6 5 6 9 11 11 12 10 13 12 13
Wind_Direction
318 310 306 302 298 295 287 281 279 276 273 271 268 264 256 245 233 228 233 233 235 235 235 230 230 238 245 254 259 260 261 267 243 228 165 140 135 135 134 133 140 135 119
319 316 312 311 308 304 302 299 297 292 283 276 268 262 259 255 239 229 229 231 226 226 226 226 226 226 224 233 235 238 242 257 247 221 184 155 154 151 147 149 146 127 117
319 316 314 313 311 306 302 299 296 292 288 283 278 272 265 260 251 237 229 225 226 224 221 221 220 213 216 218 223 229 228 232 227 216 208 182 171 162 153 148 124 119 120
319 315 311 309 306 303 301 298 294 290 287 282 277 273 269 265 259 247 235 229 224 221 216 217 220 217 215 211 217 217 217 218 215 216 205 192 186 171 161 150 141 141 136
316 312 310 308 305 303 302 298 295 292 289 287 284 277 271 267 262 254 241 237 225 221 215 213 219 217 218 215 219 207 205 208 207 210 208 202 195 181 177 169 160 145 134
317 312 308 305 305 301 298 295 292 290 289 286 282 279 275 270 270 275 260 252 234 221 215 213 221 220 214 208 207 194 191 205 209 210 211 206 205 195 184 170 160 155 158
313 310 311 311 309 307 306 304 299 294 290 284 280 275 270 267 269 269 261 256 254 234 218 209 219 221 205 207 207 205 206 213 208 210 219 216 210 200 186 180 175 176 164
315 316 317 316 313 309 305 302 298 293 288 283 279 274 267 262 255 250 250 245 251 243 225 211 213 225 213 205 208 208 210 211 209 212 223 228 229 214 194 193 181 168 140
321 322 319 316 312 309 306 303 300 294 287 281 278 271 265 261 248 240 235 240 241 242 233 222 214 217 209 199 204 210 213 214 216 214 210 217 221 216 191 179 172 165 159
324 320 318 314 310 307 303 300 297 292 286 283 279 271 264 260 244 227 221 233 234 233 228 225 221 214 203 197 204 210 213 216 221 211 206 210 213 215 199 193 183 176 164
322 319 316 312 309 304 303 301 298 294 289 285 282 274 263 254 242 223 214 224 229 227 225 221 217 203 195 195 202 211 214 212 214 214 206 206 207 208 201 198 192 184 178
322 318 316 314 312 312 308 304 301 298 293 288 285 279 266 254 238 222 213 218 229 235 232 225 210 194 190 191 199 204 194 195 218 216 214 209 207 205 202 195 194 190 187
322 319 317 316 314 311 309 308 307 303 297 295 292 289 280 260 232 214 210 215 223 235 240 217 189 187 186 192 204 197 189 203 219 225 222 215 210 204 191 184 179 175 172
323 320 318 317 316 316 312 309 309 309 308 309 307 304 301 287 247 209 204 209 213 223 230 204 181 187 194 197 189 196 206 217 216 223 224 217 200 195 190 179 176 169 165
322 319 319 318 316 314 313 311 310 317 312 307 313 315 319 313 314 255 214 205 200 201 194 188 193 192 200 203 199 195 204 214 221 223 218 208 198 193 189 177 171 167 173
321 321 319 319 319 317 316 315 308 298 293 284 284 294 310 325 289 131 145 155 161 166 189 200 206 209 210 210 207 206 207 211 211 211 212 204 196 191 186 178 171 173 174
319 318 316 318 319 319 320 319 314 298 274 277 278 282 290 322 18 174 173 162 159 159 209 218 215 218 221 222 219 217 214 211 207 208 203 199 193 187 181 177 175 175 175
320 317 318 319 319 318 318 318 317 316 307 259 222 245 248 240 223 185 161 168 191 203 226 226 222 225 231 228 223 223 219 210 203 202 198 193 190 184 181 181 178 176 173
321 320 323 320 317 317 320 324 329 332 333 335 157 157 189 182 187 207 200 225 224 214 219 220 221 229 235 232 224 221 218 206 195 192 194 191 188 181 181 182 178 172 172
321 319 321 321 321 326 333 335 339 343 346 2 25 114 168 204 215 199 213 229 235 234 236 227 220 227 231 226 217 214 213 202 195 196 195 191 185 180 181 179 176 174 174
324 322 322 327 329 337 339 337 345 357 2 13 41 62 348 274 263 225 212 222 235 243 245 238 227 229 225 214 212 217 214 204 197 192 189 186 184 181 179 176 173 171 168
321 322 328 330 330 340 338 337 348 358 7 10 11 104 292 287 285 272 248 235 229 232 236 232 222 218 216 211 210 215 207 200 190 182 183 181 179 176 173 171 168 166 163
324 328 330 335 338 337 334 346 352 2 10 8 357 342 280 285 295 291 281 272 266 254 251 234 216 203 197 197 201 216 209 192 185 184 179 172 169 169 168 166 164 160 161
326 332 337 342 346 347 345 350 356 0 359 1 7 347 339 330 321 321 312 315 311 265 220 219 191 171 158 134 122 190 185 149 159 166 165 161 160 159 159 159 159 160 161
335 340 343 345 347 351 353 357 360 0 2 356 2 9 0 342 329 331 323 319 61 106 117 126 121 126 121 114 106 94 84 84 97 126 140 145 148 150 152 154 156 156 157
338 343 344 346 347 350 356 357 360 6 6 359 359 2 353 336 326 320 16 73 99 102 107 101 106 103 102 92 93 91 86 89 93 102 129 137 140 144 147 150 152 153 155
Height
1481 1478 1476 1473 1470 1468 1466 1464 1462 1460 1459 1458 1457 1457 1457 1457 1457 1457 1457 1458 1458 1458 1459 1460 1462 1464 1466 1469 1472 1474 1477 1480 1483 1485 1487 1489 1492 1493 1495 1497 1498 1500 1501
1476 1473 1470 1467 1465 1462 1460 1457 1455 1453 1452 1451 1450 1450 1450 1450 1450 1451 1451 1452 1453 1453 1454 1455 1456 1458 1461 1463 1466 1468 1471 1475 1478 1480 1483 1486 1488 1490 1492 1494 1496 1497 1498
1472 1468 1465 1462 1459 1456 1453 1451 1448 1446 1445 1444 1443 1442 1442 1443 1443 1444 1445 1446 1447 1448 1449 1450 1451 1453 1455 1457 1459 1462 1465 1468 1472 1476 1478 1481 1484 1486 1489 1492 1493 1494 1496
1467 1463 1460 1456 1453 1450 1447 1444 1442 1439 1437 1436 1435 1434 1434 1434 1435 1436 1437 1439 1440 1442 1443 1444 1446 1447 1449 1451 1454 1456 1459 1462 1466 1469 1472 1476 1479 1482 1485 1488 1490 1492 1494
1462 1458 1454 1451 1447 1443 1440 1437 1434 1432 1430 1428 1427 1426 1425 1426 1427 1428 1430 1431 1433 1435 1437 1439 1440 1442 1444 1446 1449 1451 1453 1457 1460 1463 1466 1470 1473 1477 1480 1483 1486 1489 1491
1456 1452 1448 1445 1441 1437 1434 1430 1427 1424 1422 1420 1418 1417 1416 1417 1419 1420 1421 1423 1425 1427 1429 1432 1435 1437 1439 1441 1444 1446 1448 1451 1454 1457 1460 1463 1467 1471 1476 1479 1482 1485 1488
1451 1447 1443 1439 1435 1431 1428 1424 1420 1417 1414 1411 1410 1409 1407 1408 1409 1411 1412 1415 1417 1420 1422 1426 1429 1432 1434 1436 1438 1441 1443 1446 1449 1452 1455 1458 1462 1466 1470 1473 1477 1480 1484
1446 1442 1438 1434 1429 1425 1421 1417 1413 1410 1406 1403 1401 1400 1399 1399 1400 1402 1404 1406 1409 1412 1415 1419 1422 1426 1429 1431 1433 1435 1438 1440 1443 1447 1450 1453 1457 1461 1465 1469 1472 1477 1481
1442 1437 1433 1428 1423 1418 1414 1410 1406 1402 1399 1396 1394 1392 1391 1391 1392 1394 1396 1398 1401 1404 1409 1412 1416 1420 1423 1426 1428 1431 1433 1436 1439 1442 1445 1448 1452 1456 1460 1464 1467 1471 1475
1437 1432 1427 1422 1417 1412 1408 1404 1400 1396 1392 1390 1387 1385 1384 1384 1385 1386 1389 1391 1394 1398 1402 1406 1410 1414 1417 1420 1423 1426 1429 1431 1435 1438 1440 1443 1447 1450 1454 1457 1461 1465 1469
1432 1427 1422 1417 1412 1407 1402 1398 1394 1390 1387 1384 1381 1379 1378 1377 1378 1379 1382 1385 1388 1392 1396 1400 1404 1408 1412 1415 1419 1422 1424 1427 1430 1433 1435 1438 1441 1445 1448 1452 1456 1460 1464
1428 1422 1417 1412 1407 1403 1398 1393 1389 1385 1382 1379 1376 1374 1372 1372 1373 1374 1376 1379 1382 1386 1390 1394 1398 1402 1406 1410 1413 1417 1420 1423 1426 1428 1431 1433 1436 1439 1442 1447 1451 1455 1459
1423 1418 1413 1408 1403 1398 1394 1389 1385 1382 1378 1375 1373 1370 1368 1368 1368 1369 1371 1374 1377 1381 1385 1389 1393 1397 1401 1405 1408 1412 1415 1418 1421 1423 1426 1428 1431 1434 1438 1442 1446 1450 1454
1420 1414 1409 1404 1400 1395 1391 1387 1383 1379 1376 1373 1370 1368 1366 1365 1365 1366 1367 1370 1373 1377 1381 1385 1389 1392 1396 1400 1403 1406 1409 1412 1415 1418 1421 1423 1426 1429 1432 1436 1440 1444 1449
1416 1411 1406 1402 1397 1392 1388 1385 1381 1377 1374 1371 1368 1366 1364 1363 1363 1364 1365 1367 1370 1374 1378 1381 1385 1388 1392 1395 1398 1401 1404 1407 1410 1413 1416 1419 1421 1424 1427 1430 1434 1439 1444
1413 1408 1404 1399 1395 1391 1386 1382 1378 1376 1372 1369 1366 1365 1363 1362 1362 1363 1364 1366 1368 1372 1375 1378 1381 1385 1388 1391 1394 1396 1399 1401 1404 1407 1411 1413 1416 1418 1421 1425 1429 1433 1438
1412 1407 1402 1398 1393 1389 1385 1381 1377 1374 1371 1368 1366 1364 1363 1362 1361 1362 1363 1364 1367 1369 1372 1375 1378 1381 1384 1387 1389 1392 1394 1396 1399 1402 1405 1408 1411 1413 1416 1420 1424 1429 1433
1410 1405 1401 1396 1392 1387 1384 1380 1376 1373 1370 1367 1365 1364 1362 1362 1361 1361 1362 1364 1365 1368 1370 1373 1375 1377 1380 1382 1384 1386 1389 1391 1394 1396 1399 1402 1405 1408 1411 1415 1419 1424 1429
1408 1404 1399 1395 1391 1387 1383 1379 1376 1373 1370 1368 1366 1364 1363 1362 1361 1361 1362 1363 1364 1366 1368 1370 1372 1374 1376 1378 1380 1381 1383 1385 1388 1391 1393 1396 1399 1402 1406 1410 1415 1420 1425
1407 1403 1399 1394 1390 1386 1383 1380 1377 1374 1371 1369 1367 1365 1364 1363 1362 1362 1362 1363 1364 1365 1367 1368 1369 1371 1372 1373 1375 1376 1378 1380 1382 1385 1388 1391 1394 1397 1401 1406 1410 1416 1421
1406 1402 1398 1394 1390 1387 1384 1380 1378 1375 1372 1370 1368 1366 1365 1364 1363 1363 1362 1363 1363 1364 1365 1366 1367 1368 1369 1369 1370 1371 1373 1375 1377 1379 1382 1385 1389 1392 1397 1402 1407 1412 1418
1405 1402 1398 1394 1391 1387 1384 1381 1379 1376 1374 1371 1369 1367 1366 1364 1363 1363 1363 1363 1363 1363 1363 1364 1364 1365 1366 1366 1367 1367 1369 1370 1372 1375 1377 1380 1384 1388 1393 1398 1403 1409 1415
1405 1402 1398 1395 1391 1388 1385 1383 1380 1377 1375 1373 1370 1369 1366 1365 1364 1363 1362 1362 1362 1362 1362 1362 1362 1363 1363 1363 1364 1365 1366 1367 1369 1371 1373 1376 1380 1385 1389 1395 1401 1407 1414
1405 1402 1399 1395 1392 1389 1386 1384 1382 1379 1376 1374 1372 1370 1368 1366 1364 1363 1362 1362 1361 1361 1360 1360 1361 1361 1361 1362 1362 1363 1364 1365 1366 1368 1371 1374 1378 1383 1389 1395 1401 1407 1414
1405 1402 1399 1397 1394 1391 1388 1386 1383 1381 1378 1376 1373 1371 1369 1368 1366 1364 1363 1362 1361 1361 1360 1360 1360 1361 1361 1361 1361 1362 1363 1364 1365 1367 1370 1374 1378 1383 1389 1395 1401 1408 1414
1405 1403 1400 1398 1395 1393 1390 1388 1385 1383 1380 1377 1375 1373 1372 1370 1368 1367 1365 1364 1363 1363 1362 1361 1361 1361 1362 1362 1362 1363 1364 1365 1367 1369 1372 1376 1380 1385 1391 1397 1403 1410 1416